Simultaneous Nadir Overpasses (SNOs) Predictions

Prediction of SNOs between GOES-16 and TERRA Satellite Orbit:

Table of predicted SNOs for the next 14.0 days since TLE Epoch: 7/20/2019
Index Date Time (GOES-16) GOES-16 Lat,Lon TERRA Lat,Lon Distance(km) Time Diff (sec)
1 07/20/2019 15:20:32 -0.00, -75.20 -0.63, -72.31 328.61 80
2 07/21/2019 03:41:56 -0.00, -75.19 -0.49, -77.50 262.41 80
3 07/23/2019 03:27:05 0.00, -75.20 0.15, -74.55 74.04 80
4 07/25/2019 03:14:54 0.01, -75.21 0.79, -71.60 410.97 80
5 07/25/2019 15:38:48 -0.00, -75.22 0.35, -76.75 174.48 80
6 07/27/2019 15:23:57 -0.00, -75.23 -0.29, -73.79 162.81 80
7 07/28/2019 03:48:01 -0.00, -75.23 -0.82, -78.98 427.69 80
8 07/30/2019 03:35:50 0.00, -75.24 -0.19, -76.03 90.41 80
9 08/01/2019 03:20:59 0.01, -75.26 0.45, -73.08 247.11 80
10 08/01/2019 15:44:55 -0.00, -75.26 0.64, -78.24 338.32 80




NCC Satellite Simultaneous Nadir Overpasses (SNOs) Prediction Service
